Theta_e
291 291 291 288 287 286 287 286 286 287 286 288 287 287 286 286 282 281 279 281 281 284 285 283 284 284 285 284 285 283 283 284 282 283 283 284 284 284 285 286 288 288 288 289 289 289 290 290 290 290 290 289 289 290 291 291 291 291 291 292 292 292 292 292 292 292 292 293 294 295 295 295 295 295
289 288 287 287 286 286 286 286 286 285 285 285 285 284 285 284 284 284 282 282 284 283 284 284 284 283 283 285 284 284 283 285 281 282 283 283 283 285 285 285 286 287 288 288 288 289 289 290 289 289 289 288 289 290 290 290 290 291 291 291 291 291 292 291 291 291 291 292 294 294 294 295 294 294
287 286 286 286 285 286 285 284 284 284 284 285 285 284 285 284 285 283 284 280 283 284 283 283 285 283 283 284 283 284 283 283 282 281 281 282 284 284 283 284 285 286 286 286 286 288 289 289 289 289 288 288 288 289 289 289 290 290 290 290 290 290 290 290 289 290 290 291 293 293 293 294 294 294
285 284 284 284 283 284 284 284 284 284 284 284 285 284 284 284 283 284 284 280 281 285 284 283 284 284 283 283 281 282 283 284 282 281 281 282 283 282 282 284 285 285 285 286 286 287 288 288 289 288 287 287 287 288 288 289 289 288 288 289 289 289 288 288 289 289 290 290 291 292 292 293 293 293
284 284 283 282 282 283 283 283 283 283 283 283 283 283 284 284 282 283 280 279 280 281 283 284 283 283 282 281 282 281 281 282 281 281 281 281 281 281 281 282 284 285 285 285 285 285 286 288 288 288 287 286 286 287 288 288 288 288 288 288 288 288 288 288 288 289 289 290 290 291 291 292 292 292
284 283 282 281 281 282 282 281 281 281 281 280 281 280 282 281 283 281 280 279 279 279 280 281 282 281 282 279 282 280 280 280 282 281 281 282 282 281 281 281 282 284 285 285 285 285 286 287 288 288 286 286 286 287 287 287 287 287 287 286 286 286 286 287 287 288 288 289 290 290 290 291 291 291
282 282 282 281 281 282 280 280 280 280 280 280 280 280 280 280 280 281 281 279 278 279 279 280 278 279 280 280 279 281 281 281 281 279 280 280 281 282 281 281 281 283 284 285 285 285 286 287 287 287 286 285 285 286 286 286 286 286 285 285 285 284 285 285 286 287 288 288 289 289 289 290 290 291
282 282 281 280 280 280 279 279 279 279 280 280 280 280 280 280 280 281 280 279 278 279 278 279 279 279 279 279 280 281 281 279 279 279 279 280 281 281 281 281 280 282 284 285 285 285 285 285 286 286 285 285 285 285 286 286 285 285 284 284 284 283 284 284 285 286 286 287 288 288 288 289 289 289
282 282 281 280 279 279 279 279 279 279 279 280 280 279 280 280 280 281 280 279 279 278 278 278 280 279 279 279 279 280 278 278 279 279 279 279 280 280 281 281 281 283 284 284 284 284 285 285 285 286 285 285 285 285 285 285 285 284 284 283 282 283 284 284 285 285 285 286 286 286 287 288 288 289
282 281 280 279 279 279 279 279 279 279 279 279 279 279 279 280 280 279 279 279 279 278 278 278 278 279 279 279 279 279 279 278 277 278 279 279 280 279 279 279 280 281 280 280 281 282 283 284 285 285 284 284 284 284 284 284 284 283 282 282 282 282 283 284 285 285 285 285 285 285 286 287 287 287
281 281 280 279 279 279 279 279 279 279 279 280 279 280 279 280 279 279 279 279 278 278 277 278 278 278 279 279 278 279 280 278 278 277 277 277 279 279 279 278 279 280 280 282 283 281 280 281 280 281 283 283 283 284 284 284 283 282 282 282 282 282 283 284 284 284 284 284 284 284 285 285 286 287
280 280 279 279 279 279 280 280 280 280 280 280 279 280 280 279 279 278 279 279 278 278 278 277 277 278 278 279 280 280 278 277 277 278 277 276 277 278 279 279 277 279 279 278 279 282 282 282 282 283 283 283 284 283 283 282 282 281 281 281 282 282 283 284 284 284 284 284 284 284 284 284 284 286
279 279 279 279 279 280 281 282 282 281 282 280 280 280 280 279 279 279 279 279 279 279 278 278 278 278 278 278 278 278 277 277 277 278 278 277 278 278 277 278 279 279 278 278 278 278 278 277 277 277 277 277 279 279 281 281 281 281 281 281 282 283 283 283 283 283 283 283 283 284 284 284 284 284
278 278 278 279 281 281 281 281 282 282 282 282 281 280 281 280 279 279 278 278 278 278 277 277 278 277 277 278 279 278 279 279 279 278 278 277 277 277 277 278 278 279 278 277 276 277 278 276 276 276 275 277 278 277 277 276 277 279 280 281 282 282 283 282 282 283 283 283 283 283 283 283 283 284
278 278 278 279 281 281 281 281 282 282 283 282 283 282 282 281 280 279 278 278 278 277 277 278 278 277 277 278 279 279 279 279 278 278 278 277 277 276 275 273 277 280 277 277 276 275 276 276 275 275 276 276 276 277 276 279 280 280 280 281 281 282 282 282 282 282 282 282 282 282 283 283 283 283
278 277 278 279 279 280 280 280 280 281 282 283 283 283 283 283 283 283 280 279 278 278 277 277 277 277 277 278 278 278 279 278 278 278 277 277 276 276 275 275 275 277 277 274 274 274 276 276 276 275 275 276 276 277 278 280 280 280 281 281 281 281 281 281 282 282 282 282 282 282 282 282 283 283
279 278 278 278 278 279 280 280 280 280 280 282 283 283 283 284 284 285 285 284 281 280 278 277 277 278 278 277 278 279 279 280 278 278 277 277 277 277 276 276 276 277 277 274 273 273 275 276 275 275 276 276 276 276 279 280 281 281 280 280 281 281 281 281 281 281 281 281 282 282 282 282 282 282
279 279 279 278 278 278 279 279 279 279 279 280 280 280 281 281 282 283 284 284 284 283 280 279 278 279 280 278 279 281 281 279 277 277 277 277 277 277 276 277 277 277 278 274 274 272 274 275 275 274 275 276 275 276 277 279 280 280 280 280 280 281 281 280 280 281 281 281 281 282 281 281 281 281
279 280 280 280 280 280 279 279 279 279 279 279 279 279 279 280 281 281 282 282 282 283 282 281 280 280 281 280 280 280 280 279 279 279 277 277 277 277 278 277 278 277 278 276 275 270 274 276 274 274 274 275 275 275 277 279 280 280 280 280 280 280 280 280 280 280 280 281 281 281 281 281 281 281
280 280 281 281 281 281 280 281 282 281 280 279 278 278 279 279 280 281 282 284 284 284 283 282 282 282 282 283 282 281 281 280 279 279 279 278 277 275 274 273 274 274 277 277 274 272 272 275 273 273 274 275 273 274 274 277 279 279 280 280 280 280 279 279 279 280 280 280 280 280 280 280 280 280
280 281 281 281 281 281 281 282 283 284 282 280 279 278 278 278 279 279 280 283 284 284 285 285 286 286 286 286 286 286 286 285 283 280 277 276 277 274 273 273 273 273 276 276 276 273 271 273 273 272 273 273 272 273 273 274 277 279 279 279 279 279 278 278 278 279 279 279 279 279 279 280 280 279
280 280 282 282 280 280 281 282 283 284 283 281 280 280 279 278 278 279 280 280 280 283 284 284 284 284 284 285 285 285 285 285 284 281 278 278 278 275 275 273 273 274 276 276 277 271 271 271 272 271 272 272 272 272 273 273 274 276 276 277 278 278 277 277 278 278 278 278 278 278 278 279 278 276
280 281 282 282 282 281 281 283 284 284 283 282 281 280 279 278 278 279 280 280 279 279 278 279 279 279 280 280 279 280 282 283 282 281 280 280 279 276 275 274 273 272 274 277 276 272 271 272 271 271 268 268 271 272 272 272 271 271 271 272 272 275 275 276 277 277 277 277 277 277 278 278 277 274
283 283 283 283 284 285 285 285 285 285 285 282 281 281 279 278 278 280 280 280 280 279 279 279 279 279 279 279 279 278 278 279 279 280 280 280 279 278 277 275 274 272 273 276 276 272 271 272 268 273 270 268 266 268 270 269 270 270 271 271 270 273 274 274 274 275 275 276 276 277 277 277 276 274
285 285 285 285 285 286 287 287 286 286 286 285 283 281 280 280 281 283 281 281 282 281 280 280 279 279 279 279 278 278 278 278 278 279 279 279 279 278 277 276 275 274 275 276 277 273 269 271 269 271 269 269 268 267 268 269 270 270 271 270 270 270 270 270 271 270 273 274 275 276 276 276 277 276
284 284 285 285 285 285 286 286 286 286 285 285 284 283 284 285 285 283 283 282 282 281 281 281 280 279 278 277 277 277 277 277 278 278 278 279 279 279 278 277 275 273 274 277 278 273 271 269 270 268 268 267 267 268 266 266 268 269 270 270 270 270 270 269 269 269 270 270 270 272 273 276 276 276
284 285 284 284 284 284 284 284 284 284 284 283 283 284 284 284 284 284 282 282 281 281 280 280 279 279 279 278 277 277 276 277 277 277 278 278 278 278 278 278 278 276 277 275 276 274 272 270 271 269 268 268 267 266 265 264 264 268 268 269 269 270 270 269 269 268 269 269 269 273 274 274 274 275
284 283 283 283 283 283 283 283 283 284 284 283 284 284 284 283 282 281 281 281 280 280 279 279 278 278 279 278 278 278 277 277 277 277 278 277 277 277 277 277 276 276 275 274 274 274 272 270 269 270 269 267 265 264 263 266 266 266 265 268 268 268 269 269 268 268 268 269 269 269 269 269 270 270
284 284 284 284 283 283 282 282 282 281 281 282 282 281 281 280 279 278 278 278 278 277 277 277 278 278 279 279 279 279 278 278 277 276 276 276 276 276 275 274 273 272 272 272 272 272 271 270 269 269 268 267 265 264 263 263 264 264 265 265 264 265 267 268 268 267 268 268 268 268 268 268 268 269
283 283 283 282 282 280 279 279 276 278 277 279 279 279 279 275 276 277 277 277 277 276 277 277 277 277 278 278 279 279 278 276 275 275 274 274 273 273 271 270 270 270 270 270 270 270 270 270 269 268 267 266 266 264 263 262 262 264 265 264 265 266 267 267 266 267 267 266 267 267 268 268 268 269
280 280 279 277 278 278 279 278 278 278 278 277 276 276 276 276 276 276 275 275 275 276 276 276 276 276 277 277 277 276 275 274 274 273 272 272 271 270 270 268 267 267 268 267 268 269 269 269 269 269 266 265 266 265 264 264 262 263 263 264 264 261 263 266 266 266 266 267 267 267 267 268 268 269
276 275 278 276 276 275 275 274 275 276 276 277 277 276 276 276 277 278 278 278 276 275 276 275 276 275 275 275 275 275 274 273 272 271 270 270 269 269 267 266 265 266 266 265 265 266 268 268 268 268 267 266 263 263 264 264 263 263 262 264 264 264 265 264 264 265 267 266 265 265 266 266 266 267
275 275 275 275 276 277 276 276 276 277 277 277 278 277 277 277 277 277 277 276 276 276 276 275 275 275 275 274 275 274 273 272 270 269 268 267 268 267 267 265 265 265 265 265 265 264 265 265 267 267 267 267 267 266 264 262 263 263 262 262 263 263 264 265 265 265 266 265 264 264 264 265 266 267
278 278 277 277 277 276 276 276 276 276 276 276 276 277 277 277 277 277 276 276 276 276 276 275 274 274 274 273 273 273 273 272 270 269 269 266 267 265 265 264 264 265 265 265 266 264 264 265 265 265 265 265 264 264 264 263 262 262 263 263 263 262 263 263 264 265 265 264 263 262 262 263 265 266
278 277 277 277 277 277 277 276 276 276 275 275 275 275 276 276 276 276 275 276 276 275 274 274 274 273 273 272 272 272 272 271 270 269 268 267 266 265 265 264 264 265 265 265 265 266 265 264 264 263 263 262 260 261 266 264 261 262 262 262 263 262 262 263 264 264 264 264 264 262 262 263 264 266
278 277 276 276 276 276 276 275 275 275 274 274 273 273 273 273 274 274 273 273 272 272 272 272 272 272 272 272 272 271 271 270 269 268 268 267 265 265 265 264 264 264 265 265 266 266 265 264 264 262 261 261 261 260 261 269 268 263 261 261 262 263 263 263 263 262 263 262 263 262 261 261 263 265
277 277 276 274 273 273 272 272 272 271 271 271 271 271 270 270 270 270 269 270 269 271 271 271 271 271 271 271 270 270 270 269 268 268 267 267 266 265 263 263 264 264 264 264 265 265 265 263 264 263 261 260 259 259 261 263 268 270 263 262 263 264 263 261 260 260 262 262 261 262 262 263 263 264
274 275 273 273 272 272 271 271 270 270 269 269 268 268 268 267 267 266 266 267 268 269 269 269 269 269 269 269 268 268 268 268 267 267 267 266 266 265 264 263 263 263 264 264 264 263 263 263 262 263 262 260 259 259 259 262 262 265 269 266 263 262 262 260 259 259 260 262 262 263 264 263 263 264
273 272 272 270 270 270 269 268 268 267 266 266 266 266 265 265 265 265 265 265 265 266 267 266 266 267 267 267 267 266 266 265 265 265 265 265 265 264 264 263 263 263 263 263 264 264 263 261 262 262 262 261 260 260 261 259 258 259 264 268 265 263 263 261 260 260 260 260 262 264 264 265 266 269
269 269 269 269 268 267 267 267 266 265 265 265 264 264 263 263 263 262 262 263 263 263 263 263 264 265 264 265 265 264 264 264 264 264 264 264 264 263 263 263 262 262 261 261 261 262 262 262 262 262 262 263 263 261 259 259 259 259 260 263 268 266 264 262 260 260 260 262 263 262 261 262 261 262
267 267 267 266 265 265 264 264 264 264 263 262 262 263 262 261 260 260 261 261 261 259 260 260 260 260 261 262 262 262 262 262 262 262 262 262 262 262 262 262 261 261 260 259 260 260 261 262 262 265 263 261 262 262 260 258 256 256 257 259 266 268 268 268 265 263 262 263 263 261 260 260 260 261
264 264 264 263 262 262 262 261 261 261 261 261 261 260 259 260 259 263 261 261 258 259 258 258 258 259 259 259 260 261 260 260 260 261 261 261 260 260 260 260 259 260 259 259 259 260 262 260 260 260 258 258 258 257 256 256 256 257 257 258 259 265 267 267 268 268 266 264 263 261 260 261 262 260
262 262 262 261 261 261 260 260 260 260 260 259 259 258 258 258 258 259 258 258 258 258 257 257 257 257 258 258 258 259 259 259 260 260 259 259 259 258 258 259 259 259 259 259 259 260 260 261 261 260 258 257 257 257 256 256 256 256 257 257 258 258 260 265 266 267 268 269 268 266 264 262 261 258
260 260 260 260 259 258 258 258 258 259 258 258 258 258 258 257 257 257 257 257 257 256 257 256 256 256 256 257 257 256 257 258 259 259 258 258 258 258 258 258 258 258 258 258 257 257 258 259 259 260 258 257 258 257 256 256 256 256 256 257 257 257 258 260 261 264 265 266 267 268 269 269 269 269
259 259 258 259 258 258 258 258 257 257 257 257 257 257 257 257 257 257 256 256 256 255 255 255 255 255 255 256 256 255 256 260 259 258 258 258 257 257 257 257 257 257 256 256 255 255 256 257 258 258 256 256 257 257 257 257 256 256 256 255 255 256 257 258 259 259 259 260 264 267 268 269 269 269
Wind_Speed
5 4 4 5 4 3 3 4 4 3 4 4 3 1 1 2 3 3 5 6 5 6 7 3 5 6 4 4 4 4 4 4 5 2 3 3 2 5 7 8 10 10 10 10 10 11 12 11 11 11 12 13 14 15 16 17 17 18 19 19 20 20 20 20 21 21 22 23 25 26 27 28 29 30
5 5 5 5 4 3 4 4 4 5 5 3 3 3 4 3 2 2 2 2 2 4 4 3 3 5 5 4 4 3 4 6 5 3 4 4 4 8 8 9 11 11 11 11 11 12 12 11 11 10 11 12 14 15 16 17 17 18 19 19 19 20 19 19 20 21 21 23 25 26 27 28 29 30
6 6 6 5 5 4 5 5 5 5 5 4 4 3 3 3 3 3 3 1 2 4 3 4 3 5 5 4 3 3 3 4 5 3 4 4 8 9 7 11 12 12 12 11 12 12 12 11 11 10 10 12 14 15 16 17 17 18 18 18 18 18 18 19 19 20 21 23 25 26 27 28 29 30
5 7 7 5 5 5 5 5 5 5 4 4 3 3 2 2 2 4 2 2 2 1 1 3 3 4 5 4 4 3 3 4 8 4 5 5 7 5 6 10 12 13 13 13 12 12 12 12 11 10 11 12 14 15 16 17 17 17 18 18 17 17 18 18 19 20 21 23 24 25 26 27 28 30
6 7 7 6 5 5 6 5 5 4 3 3 3 3 2 0 1 1 1 2 4 1 2 2 3 3 3 3 4 5 4 4 5 7 6 5 5 5 5 5 10 13 14 14 13 12 12 12 12 11 11 12 13 15 16 17 17 17 17 17 17 17 18 18 19 20 21 23 24 25 26 27 28 29
5 7 8 7 6 5 7 6 5 4 3 2 3 2 1 1 1 1 1 3 2 4 2 1 4 3 3 4 4 6 5 5 4 5 5 5 5 5 5 5 5 12 13 14 13 12 12 13 13 12 11 12 13 15 16 16 16 17 17 17 16 17 17 17 18 20 21 23 24 25 25 27 28 29
7 7 7 7 6 5 7 5 4 4 3 3 2 1 1 0 1 0 1 1 3 4 4 3 3 3 5 6 4 4 4 3 4 4 6 6 5 5 5 6 5 10 13 14 13 13 13 14 15 14 12 12 13 15 16 17 17 16 16 16 16 16 16 17 18 20 21 23 24 24 26 27 28 28
7 8 8 6 7 6 7 5 4 4 3 4 2 1 0 0 1 1 0 2 2 2 4 3 2 3 3 4 3 3 3 4 5 6 6 6 6 6 6 7 6 8 13 14 14 14 14 15 15 15 13 12 14 16 17 17 17 16 15 15 15 16 16 17 18 20 21 22 23 24 25 26 27 28
8 7 8 7 7 7 7 5 4 4 4 3 2 1 1 1 1 1 1 1 2 3 6 6 4 2 3 2 3 3 4 5 6 6 8 6 7 7 6 6 6 9 14 14 15 14 15 16 17 17 14 13 15 17 19 18 17 16 15 15 15 15 15 17 18 20 21 22 22 23 25 26 26 27
7 9 9 7 6 7 7 5 4 4 4 3 2 1 2 1 1 2 2 2 3 4 5 5 6 5 5 5 5 5 6 6 6 6 6 6 6 6 6 6 5 4 5 5 6 10 12 15 18 17 15 15 15 18 20 19 17 16 15 15 15 15 16 17 19 20 21 21 22 23 24 26 26 27
8 9 9 8 7 7 6 6 6 5 4 3 3 4 3 3 2 3 3 3 4 4 5 6 6 7 7 6 7 4 4 5 5 6 6 7 6 6 7 6 4 4 6 9 12 10 9 11 10 11 13 14 16 19 21 19 18 16 16 15 15 15 16 17 18 19 20 21 22 23 24 25 26 27
7 7 7 8 8 8 6 6 6 6 5 4 4 4 4 4 4 4 3 4 4 4 5 6 7 7 7 5 5 4 3 5 7 7 7 9 8 6 5 5 5 4 5 6 5 9 12 12 14 15 16 19 20 21 20 20 18 16 16 16 15 16 17 17 18 19 20 21 22 23 23 24 25 26
8 7 7 8 8 8 8 9 7 6 5 4 3 3 4 5 4 3 3 3 3 3 5 7 7 8 8 7 6 7 7 8 10 5 5 7 7 5 6 7 6 7 7 7 6 6 5 5 5 5 6 7 11 14 19 15 18 18 16 14 15 16 17 17 17 18 20 21 22 22 23 24 25 26
7 7 7 7 9 10 9 9 9 9 9 8 6 3 4 3 3 4 4 5 4 5 7 8 7 8 8 8 8 9 9 7 6 6 6 9 8 5 8 8 7 6 7 6 7 6 4 5 5 5 7 6 7 6 8 7 9 11 13 15 16 16 15 16 17 18 20 21 21 22 23 24 24 25
8 7 6 6 8 8 7 7 10 10 11 11 12 12 11 8 5 4 6 6 6 7 9 9 7 8 10 11 10 9 10 8 8 7 6 8 7 7 8 11 6 6 8 6 5 6 3 4 7 7 7 7 7 7 8 13 15 15 15 16 17 16 15 15 17 19 20 20 21 22 23 23 24 25
8 9 7 5 5 5 6 5 5 8 11 12 13 13 14 14 16 14 9 7 7 8 9 9 9 8 11 12 10 9 9 9 8 7 7 9 9 10 9 10 10 1 7 4 5 7 3 3 7 8 7 7 7 8 12 17 16 15 15 17 17 16 14 15 17 19 19 20 21 22 23 24 24 24
8 7 6 6 4 4 9 6 4 5 5 10 13 13 14 17 17 18 19 18 13 8 9 10 12 11 10 12 13 10 9 8 9 8 8 9 8 9 9 11 8 3 5 2 4 7 6 3 6 8 8 7 7 8 13 17 18 17 16 17 18 16 14 15 18 19 20 21 21 22 23 23 24 24
8 10 9 8 5 4 5 5 6 5 5 5 5 6 7 8 11 16 21 22 24 18 12 11 13 15 10 13 14 11 7 9 9 9 10 9 9 9 11 9 7 3 2 4 3 6 8 5 7 10 7 5 5 6 10 16 16 16 16 18 19 17 14 14 17 19 20 21 22 22 23 23 23 23
10 8 7 7 7 7 5 5 7 5 5 5 5 7 9 8 8 8 10 12 11 11 11 13 15 16 13 12 12 11 8 9 9 9 10 10 8 8 8 9 8 7 6 4 5 11 10 4 6 7 5 5 7 5 9 14 16 18 18 19 18 16 15 15 19 20 20 21 22 23 22 22 23 23
6 6 7 6 5 6 6 8 13 9 4 5 8 10 10 10 9 10 10 12 11 10 10 11 13 13 13 13 12 11 9 7 8 9 9 8 7 8 10 12 9 10 7 8 8 9 10 5 5 7 6 6 7 6 5 11 16 17 18 18 16 15 13 17 19 20 20 21 22 21 21 22 22 23
5 6 6 6 5 5 5 7 12 13 11 8 9 10 12 11 9 11 7 11 16 19 21 22 23 25 26 26 27 27 27 19 12 7 9 11 6 7 11 12 10 9 6 7 9 8 9 6 6 7 6 5 7 7 7 8 14 18 17 14 14 14 16 19 19 19 20 21 22 21 21 21 21 24
4 5 6 5 5 6 5 7 11 13 11 9 9 9 11 13 12 9 4 5 7 15 20 23 24 25 25 24 25 25 25 24 18 12 13 12 8 11 11 13 10 10 9 9 6 3 9 4 4 5 5 6 6 7 7 7 7 8 6 9 13 16 17 18 18 18 19 20 21 21 20 20 20 13
3 4 5 8 7 6 6 10 12 14 11 9 8 8 9 12 13 8 6 9 9 7 6 9 9 11 14 12 11 12 20 21 17 13 14 11 11 12 12 11 10 9 10 6 8 8 7 5 5 4 2 6 5 5 6 2 1 1 1 5 7 11 14 16 16 17 19 20 20 20 20 19 17 10
4 5 5 8 13 15 15 14 14 13 14 9 8 7 9 10 13 8 7 8 8 10 9 9 9 11 10 9 10 10 10 11 10 11 11 11 11 12 11 10 9 10 9 0 11 8 3 4 4 4 4 6 6 2 1 1 1 3 4 5 5 9 12 13 12 16 18 18 19 19 19 18 16 10
4 3 4 4 9 13 14 13 14 14 16 15 9 7 8 8 10 12 9 10 11 10 10 10 10 9 8 9 8 9 10 9 8 8 10 11 10 10 11 11 10 10 10 3 9 4 5 3 5 3 4 4 6 5 4 3 4 5 4 5 6 5 4 6 6 8 12 16 17 19 18 17 18 14
2 2 1 1 2 6 8 10 11 12 13 15 8 8 14 19 20 14 9 9 8 8 8 8 9 8 7 6 7 8 8 8 9 8 8 8 9 9 9 10 10 10 10 3 13 7 6 5 7 5 4 5 8 6 7 5 3 5 5 5 4 4 5 6 6 8 7 8 8 10 13 19 18 17
1 0 1 1 2 2 4 6 8 10 12 10 7 13 15 16 19 15 8 8 8 8 9 9 9 8 7 7 7 7 7 7 7 7 7 7 7 8 8 9 9 11 9 2 6 6 6 6 3 7 7 5 7 6 6 6 4 1 4 4 5 4 5 6 7 6 8 8 8 15 16 16 15 16
2 2 1 1 2 5 8 9 9 10 9 7 11 12 11 11 9 5 6 6 7 8 9 9 9 9 6 6 7 7 6 6 6 7 7 7 8 8 8 8 8 7 5 3 4 3 4 6 4 3 4 5 7 8 9 4 3 4 3 4 5 7 7 5 5 7 7 7 8 8 7 7 7 8
3 3 5 6 8 8 7 6 6 5 6 7 7 8 12 12 5 5 6 7 7 8 9 9 9 9 8 7 8 6 5 6 5 5 4 4 5 4 3 4 3 2 3 1 3 3 4 6 6 4 3 4 5 5 4 8 4 4 4 7 6 3 4 6 7 6 7 8 8 7 7 7 8 8
5 6 7 8 6 2 2 2 1 2 2 6 9 10 9 4 3 2 3 4 6 7 7 8 8 8 8 8 8 8 6 4 4 3 4 4 4 2 3 5 6 2 3 3 3 4 4 4 5 5 5 5 5 6 4 5 8 4 4 6 8 7 5 5 4 6 8 8 7 6 7 7 8 8
1 1 0 0 2 3 5 5 6 5 5 4 3 2 2 1 1 2 2 3 4 6 6 7 7 7 6 7 7 7 6 6 4 2 3 4 5 2 3 4 6 6 5 5 5 5 5 7 7 7 7 6 5 5 4 4 8 7 6 6 6 8 4 6 6 5 6 8 7 6 6 7 7 7
1 1 1 1 1 1 1 2 2 2 1 2 2 2 2 2 4 6 7 7 4 4 5 5 6 5 6 6 7 6 5 5 4 1 0 2 4 2 1 3 7 6 6 3 4 5 5 5 6 7 8 6 6 4 3 5 7 7 8 6 7 7 5 5 5 5 7 7 6 5 5 7 7 7
1 2 2 2 2 2 2 2 2 2 2 2 2 2 3 2 3 3 2 3 3 4 4 5 6 7 6 7 7 7 7 6 5 1 0 2 2 3 2 5 6 6 7 7 3 4 5 4 6 7 6 6 6 5 5 7 7 6 7 7 5 7 5 5 4 6 7 7 7 6 6 5 7 8
2 2 2 3 3 3 4 4 4 3 3 3 2 2 4 3 2 3 3 3 4 3 4 4 5 6 7 7 7 7 7 5 3 1 2 2 2 2 4 5 6 5 5 6 6 3 2 3 3 4 5 5 5 5 5 7 8 6 6 6 6 8 6 3 4 5 7 6 7 8 6 6 7 7
4 4 4 4 4 4 3 3 2 1 2 3 2 2 2 2 3 3 3 3 4 4 4 5 5 6 6 7 7 7 6 6 5 4 1 2 2 3 4 5 6 6 5 6 6 4 2 3 3 3 4 4 4 6 12 11 8 10 7 7 7 7 6 3 3 4 6 6 5 8 8 7 8 7
4 4 4 4 2 0 0 1 2 1 2 2 2 3 3 3 3 3 3 5 5 5 5 5 6 6 6 7 7 6 6 6 6 6 5 3 3 3 3 4 5 6 6 6 6 4 2 3 3 4 5 6 5 8 4 17 19 8 7 6 5 5 4 3 3 3 6 7 5 6 8 9 8 8
4 3 1 2 2 1 1 0 1 1 1 1 1 1 2 2 2 3 4 5 4 5 5 5 5 5 6 6 7 7 6 6 6 5 5 5 4 3 3 4 5 5 6 6 5 5 2 2 3 4 4 6 7 9 7 1 16 18 5 6 5 4 3 3 3 4 6 7 6 5 8 8 9 9
2 2 1 1 1 1 1 1 0 0 0 1 1 1 1 2 2 3 3 3 3 3 5 4 5 6 6 6 6 7 7 6 7 6 6 5 5 5 4 5 5 5 6 6 4 3 3 3 4 4 5 7 8 8 7 1 1 5 13 7 5 4 2 3 4 6 8 5 6 7 7 8 8 9
2 2 2 1 1 0 0 0 1 0 1 1 1 1 2 2 2 3 3 3 3 4 4 5 5 6 6 6 6 6 6 6 7 7 6 6 6 6 5 5 6 6 6 7 7 5 3 3 3 4 5 6 7 7 5 5 3 4 7 9 5 6 5 3 5 6 7 7 6 7 6 6 11 18
1 2 1 1 1 1 1 1 1 1 1 1 1 1 1 1 2 2 2 4 3 3 3 4 4 5 5 5 6 5 6 6 6 5 6 6 5 5 5 5 6 6 7 7 7 6 6 5 4 4 4 5 5 3 1 4 4 4 6 10 20 15 9 4 5 6 7 6 7 7 7 6 8 7
1 1 2 2 2 1 1 1 1 1 1 1 0 1 1 1 1 1 1 2 3 2 3 3 3 3 3 4 4 4 5 6 5 5 5 5 6 6 7 8 6 6 6 6 6 5 5 3 4 10 6 3 4 4 5 6 7 4 5 6 10 12 12 8 5 6 8 7 6 6 6 7 8 9
1 1 2 2 2 1 1 1 1 1 0 0 0 0 0 1 1 4 3 4 1 1 3 3 3 3 3 3 3 4 4 4 4 5 5 4 5 5 7 5 5 5 6 6 7 6 6 4 4 1 2 3 3 4 7 6 7 6 5 5 4 8 13 13 12 13 10 7 6 6 6 6 6 7
1 1 1 2 1 1 0 1 0 0 0 0 0 0 0 1 1 1 1 2 1 1 2 2 3 3 3 3 3 3 3 3 3 3 3 4 4 5 5 5 5 5 6 7 6 6 6 6 6 4 2 2 3 4 7 6 6 7 7 6 6 4 3 8 13 18 18 17 15 11 8 6 5 6
1 0 0 1 1 1 0 1 1 0 0 0 0 0 1 1 1 2 1 1 2 2 2 2 3 3 3 3 3 3 3 3 3 3 3 3 4 4 4 5 5 5 5 6 6 5 5 5 5 4 4 4 4 6 7 6 6 7 6 6 5 5 6 5 7 11 11 11 13 14 16 16 15 16
1 0 0 0 0 0 1 1 1 1 0 0 0 1 1 1 1 1 2 2 2 3 2 3 3 3 3 3 3 3 3 5 4 3 3 3 3 4 3 4 4 4 5 5 5 6 5 5 5 4 4 4 4 6 7 7 7 6 7 7 8 6 5 5 7 8 7 6 9 13 12 12 13 14
Wind_Direction
109 98 95 101 104 97 98 76 73 68 52 48 53 56 135 207 206 188 204 210 208 182 170 166 191 185 188 186 194 189 219 181 163 249 259 257 248 254 248 272 286 287 286 290 292 291 292 298 308 318 325 327 324 320 319 321 323 324 326 327 327 327 330 334 336 336 334 333 332 332 330 328 327 327
108 106 101 110 106 97 88 81 65 55 49 61 52 47 34 17 338 316 304 307 154 138 172 192 150 172 193 190 197 195 221 154 181 224 242 242 243 250 256 270 275 271 274 281 283 282 286 294 303 313 320 319 315 315 317 320 320 321 323 323 323 326 331 335 335 332 332 331 331 330 328 326 325 324
126 125 115 111 107 101 96 88 72 56 47 50 58 47 25 25 7 354 330 287 20 123 160 203 123 157 185 192 192 198 225 179 192 224 246 240 246 253 263 264 258 255 259 268 272 276 282 290 297 307 310 309 309 312 316 316 316 317 318 318 321 327 332 333 331 330 329 330 329 327 326 325 324 324
132 132 124 119 119 112 100 86 77 72 52 37 52 42 31 35 23 1 328 292 310 75 93 120 114 150 167 181 198 223 209 186 182 237 243 247 249 254 250 252 244 242 247 254 265 274 280 285 291 296 299 302 307 309 310 311 312 313 312 315 322 328 330 329 328 328 328 327 326 325 324 323 323 323
136 128 121 116 110 117 106 95 90 85 84 62 54 42 29 28 52 4 307 284 281 100 64 127 152 148 154 204 201 219 223 207 211 216 232 236 238 244 248 253 246 238 238 244 255 268 276 279 283 287 291 298 303 304 305 307 308 308 309 314 322 326 326 325 324 325 326 324 323 322 322 321 320 320
131 127 123 119 115 103 98 97 96 102 99 86 81 78 46 5 48 17 1 288 277 273 128 187 115 160 179 227 213 195 220 232 220 221 226 233 230 238 246 245 248 243 234 236 248 260 270 277 278 281 286 293 299 301 301 301 302 303 307 314 320 323 322 321 321 321 322 321 321 321 320 319 319 319
137 128 124 122 109 95 97 97 96 97 96 80 78 72 65 26 329 36 336 313 276 285 281 131 175 186 197 211 224 202 206 228 238 247 248 241 238 230 233 242 246 250 247 248 250 257 266 273 277 276 279 285 293 295 295 294 295 298 305 312 317 318 317 316 317 319 320 319 319 319 318 318 317 318
142 135 121 109 107 104 103 110 112 105 101 101 97 116 127 139 299 335 125 299 290 305 290 270 203 228 205 221 216 217 217 224 237 240 245 238 235 234 233 235 239 245 251 256 256 257 262 270 273 273 273 277 285 289 290 288 290 296 303 309 313 312 312 312 314 316 316 317 317 316 316 316 316 316
134 124 113 112 112 122 121 125 126 131 120 114 117 142 171 166 237 172 222 237 272 265 267 277 279 262 248 241 239 215 225 243 244 236 238 234 233 237 233 232 238 246 252 256 255 255 257 263 269 269 268 271 278 284 286 285 288 294 301 305 307 307 306 309 312 313 313 314 314 315 314 315 315 315
126 124 117 120 124 138 143 142 136 125 130 135 164 192 212 210 206 219 211 221 224 245 254 269 281 273 255 252 234 212 224 241 253 259 247 236 227 232 240 236 230 223 225 228 243 250 252 255 262 265 264 264 271 281 283 282 284 289 295 299 301 302 303 307 309 310 312 312 313 313 313 312 313 313
117 119 123 127 136 144 145 145 142 136 146 165 193 205 209 212 215 226 227 226 229 232 252 262 261 270 262 250 261 246 204 218 237 253 272 263 242 231 234 244 230 211 228 237 235 233 228 233 239 253 257 259 266 273 278 279 278 284 289 294 297 298 301 304 307 309 310 311 311 311 311 310 311 312
114 112 112 128 146 152 154 147 142 150 164 175 194 211 198 207 214 227 236 241 235 232 243 255 265 264 270 260 252 240 221 248 251 235 236 257 261 249 241 224 218 234 230 233 234 241 244 245 251 258 265 268 267 262 266 273 275 274 280 285 288 293 297 301 305 307 309 310 309 310 310 310 310 311
120 122 130 141 153 158 156 152 157 165 170 175 198 208 196 206 214 227 234 244 244 253 255 263 262 265 266 262 259 256 238 232 252 243 218 249 255 256 263 256 245 240 242 248 244 240 215 222 231 227 238 246 256 255 253 257 263 268 270 280 290 292 293 299 303 306 308 309 309 309 309 309 310 309
125 131 137 150 155 163 157 163 173 187 196 206 212 207 216 211 212 220 223 235 245 252 257 258 262 269 271 265 254 259 256 258 261 258 246 257 264 262 261 267 237 215 229 232 240 240 213 215 239 236 248 252 251 240 240 236 241 253 268 285 291 291 293 299 305 307 308 308 308 309 309 309 308 308
143 142 143 142 159 156 164 179 194 206 211 220 222 225 226 227 221 218 232 237 229 241 255 261 260 263 268 264 261 260 271 265 255 252 252 258 262 259 271 278 275 204 186 225 243 253 225 210 240 240 245 248 245 238 236 238 243 256 270 281 288 287 290 299 306 309 308 309 309 309 308 308 308 308
147 157 152 143 143 164 167 167 191 214 223 227 229 232 235 234 235 232 226 233 242 239 249 261 255 254 256 267 264 266 268 267 262 252 247 252 255 263 263 264 269 248 134 186 226 256 226 207 240 246 244 241 242 243 243 245 248 255 266 278 283 282 283 296 309 311 310 309 309 309 308 307 307 308
146 141 141 144 162 153 175 178 184 193 220 231 237 242 246 249 246 245 244 242 238 238 249 257 263 247 251 263 265 257 260 268 267 266 264 259 257 260 264 265 273 239 154 181 241 258 254 216 244 250 245 242 242 248 252 251 253 255 262 273 278 275 276 296 310 312 311 311 310 309 308 308 308 308
142 157 162 164 165 161 171 185 189 202 213 214 223 234 236 237 241 242 246 247 247 244 240 246 253 256 235 250 264 270 275 274 269 277 276 278 275 269 266 276 272 271 155 187 249 273 265 226 242 252 247 243 252 251 253 253 253 256 260 271 276 271 270 298 314 312 311 311 311 310 309 308 308 308
162 161 161 168 176 181 171 182 188 192 204 211 232 243 251 246 240 235 232 232 234 236 237 240 248 260 258 257 269 279 278 271 275 278 278 277 273 279 292 287 268 262 239 235 227 260 270 249 251 251 251 255 262 253 264 265 262 261 264 270 272 265 267 302 312 311 311 311 311 310 309 309 309 309
153 150 162 172 186 188 185 191 203 204 189 225 243 252 258 258 254 251 244 250 247 239 238 241 250 259 263 265 270 274 278 280 283 284 279 278 275 275 269 266 266 256 244 216 213 248 258 228 229 258 262 260 263 261 254 264 265 263 265 266 266 260 273 300 306 308 310 312 309 309 309 309 310 311
153 167 177 184 192 196 208 195 206 217 213 233 241 252 260 261 263 264 265 251 254 256 257 258 260 267 272 277 279 281 280 279 273 263 270 265 258 251 262 265 264 256 235 222 218 229 257 240 226 256 257 258 263 263 263 260 267 268 265 260 260 265 280 292 299 305 310 310 308 307 308 310 312 314
171 183 172 180 195 207 213 185 214 223 223 235 241 247 261 268 267 272 262 248 242 247 252 259 263 267 272 276 278 280 280 280 279 274 265 263 259 259 255 265 261 269 259 245 196 189 241 248 243 265 271 270 248 249 249 244 252 259 252 254 262 276 281 285 292 302 308 309 307 306 308 310 314 316
184 199 200 204 212 210 212 219 223 228 221 232 238 247 259 268 273 276 290 284 284 280 271 268 267 266 267 266 266 269 271 269 268 263 267 274 262 261 261 262 273 276 263 232 167 225 248 225 240 214 279 268 250 208 238 237 142 152 227 264 273 274 275 280 291 301 306 307 306 305 308 310 315 312
188 194 202 200 217 228 229 229 231 231 230 229 239 242 253 265 275 290 281 282 285 287 282 278 273 271 266 261 257 255 258 259 254 256 257 260 262 263 264 257 249 256 272 127 166 211 248 209 235 221 221 273 290 82 108 246 223 247 258 266 263 280 280 281 289 297 303 305 305 306 307 309 312 308
186 184 184 189 206 225 235 237 245 248 252 254 253 246 247 253 270 286 284 284 277 273 276 275 273 271 266 260 257 257 260 260 256 252 253 255 257 262 269 269 262 261 263 240 186 181 223 211 240 205 234 222 262 280 243 234 258 244 250 261 272 271 271 276 288 292 298 304 306 304 305 305 307 308
185 186 216 324 160 208 239 246 262 268 269 272 270 266 272 280 286 289 287 289 289 279 276 274 275 272 261 257 259 259 257 256 254 252 253 253 255 256 263 269 273 278 273 223 199 209 219 239 229 230 233 230 261 246 277 263 225 267 261 257 254 273 279 288 288 287 297 302 298 297 299 305 308 305
241 266 266 249 217 282 282 288 289 285 282 281 278 278 280 283 288 292 290 290 288 285 284 286 286 282 278 274 270 265 262 259 255 255 251 250 254 259 260 257 257 262 275 309 209 213 229 249 189 220 247 249 269 282 262 276 278 201 269 280 277 278 288 284 281 288 299 297 291 300 306 306 305 307
232 231 184 187 288 293 291 292 292 291 288 281 281 289 299 312 320 310 300 296 291 290 290 288 288 288 285 280 278 274 264 260 257 257 253 248 247 255 258 256 257 267 285 252 245 238 235 250 255 240 239 244 255 265 281 264 260 275 273 278 284 285 276 274 290 291 285 290 296 300 297 299 302 309
236 256 266 284 296 307 310 307 305 298 286 284 289 304 302 302 294 289 283 283 285 285 286 286 287 289 290 294 297 295 277 277 283 281 288 286 275 270 293 283 288 315 301 270 225 230 234 243 252 241 231 229 239 254 249 275 284 287 291 291 284 263 286 290 276 277 298 299 293 291 293 299 303 304
324 307 294 290 295 312 317 307 275 279 290 292 292 286 284 272 264 266 287 290 287 283 286 289 293 299 305 306 312 316 316 315 290 292 285 291 287 289 281 286 278 241 216 236 232 231 229 236 240 233 232 236 231 247 252 277 281 277 285 281 283 294 253 258 285 303 295 291 286 289 291 295 296 298
244 250 94 85 284 271 270 272 274 268 270 267 260 253 253 267 287 287 270 269 277 287 289 291 293 297 300 304 303 300 301 295 304 331 306 298 294 295 283 276 280 278 249 214 224 221 229 239 239 238 238 241 238 231 246 254 276 286 276 274 279 278 295 300 288 287 292 287 289 290 294 294 293 294
143 129 138 220 230 205 216 223 207 221 226 246 249 252 248 253 265 272 272 276 270 270 279 285 290 296 301 304 304 305 303 296 288 236 198 283 292 283 258 274 275 276 277 227 221 228 220 226 235 242 241 240 242 253 243 245 256 268 277 271 272 273 277 283 285 285 286 294 294 289 291 295 293 294
129 145 185 191 193 223 244 261 267 266 265 264 266 254 245 262 269 271 274 277 278 279 282 288 296 298 301 298 301 298 294 290 295 308 224 277 259 284 246 254 273 284 287 284 243 221 215 222 239 243 251 258 252 246 239 259 250 252 265 271 275 274 277 272 286 293 298 294 286 290 293 293 289 290
182 213 216 236 245 250 259 267 273 277 293 295 298 297 305 301 286 290 300 302 298 301 298 303 304 303 302 297 296 295 293 298 301 268 228 273 284 263 269 273 277 274 274 279 283 247 200 211 216 245 255 261 273 260 246 245 260 251 254 273 274 282 280 289 287 291 293 289 301 300 295 292 289 289
208 208 224 224 229 228 226 235 235 279 305 301 306 310 321 307 306 315 319 320 341 335 326 315 311 305 300 296 297 296 300 304 305 314 227 228 251 258 268 278 285 288 286 287 285 279 199 205 200 246 247 242 262 259 226 226 252 252 262 260 266 267 281 278 277 282 288 292 295 292 292 290 289 288
219 200 206 216 205 147 183 44 51 26 29 19 12 355 339 329 334 337 343 360 351 325 317 310 303 300 298 298 302 305 308 308 300 296 293 276 264 268 269 267 280 285 287 283 288 285 242 242 226 252 268 274 271 282 287 212 213 229 228 253 251 262 273 274 285 291 296 290 288 288 288 294 294 296
229 231 174 100 110 112 117 62 71 18 23 15 356 346 329 324 345 5 3 340 312 308 310 313 308 310 307 307 306 306 308 308 305 303 299 297 282 271 270 273 270 275 278 277 277 284 266 250 250 251 262 269 268 269 272 101 217 214 180 236 267 278 290 310 308 296 280 283 284 275 284 293 294 295
201 192 202 144 117 128 121 123 109 101 47 21 350 352 352 4 351 352 341 332 328 331 325 325 318 315 315 325 324 315 312 309 309 308 308 313 308 299 289 292 297 295 295 297 292 277 259 252 254 252 253 259 275 274 288 245 82 233 215 225 270 298 306 305 289 284 285 280 278 284 289 287 292 297
209 208 215 161 87 47 11 60 40 28 39 25 10 3 9 343 344 347 339 330 338 339 335 327 320 316 318 318 314 313 315 314 310 310 311 312 318 317 318 317 311 309 309 303 303 298 275 257 252 252 250 262 263 287 322 328 287 357 335 312 306 289 271 256 268 274 277 286 286 289 286 291 292 293
44 68 72 76 94 66 31 40 39 42 55 17 35 5 345 335 352 331 324 337 338 338 330 313 313 317 318 316 319 318 311 309 309 315 320 319 318 318 314 309 309 309 302 299 300 302 303 286 270 260 275 281 321 18 279 270 268 288 268 279 276 272 273 239 254 271 278 275 291 296 296 309 296 302
90 90 71 75 81 79 67 47 55 43 37 40 32 323 1 355 312 300 331 313 346 348 324 311 318 324 314 315 314 314 309 307 309 312 317 320 315 314 316 314 305 300 296 298 299 299 301 345 356 339 349 355 322 323 300 287 281 275 256 253 256 277 287 283 258 254 269 280 276 279 294 300 301 304
84 65 76 75 85 44 77 87 42 46 21 19 30 345 9 318 294 303 314 324 358 323 303 304 324 318 307 304 307 312 306 306 306 306 310 315 316 309 308 307 300 306 305 301 305 307 317 326 315 348 315 306 300 282 273 278 284 286 284 291 298 296 291 287 282 282 284 284 282 277 278 278 275 280
76 103 93 71 82 102 75 81 47 132 254 38 48 3 316 298 298 314 322 325 321 306 298 309 307 304 301 309 308 302 300 295 294 301 307 303 303 306 305 301 302 302 301 297 299 306 306 312 306 297 282 283 275 264 278 284 285 289 291 291 286 283 295 297 293 291 291 290 283 273 256 252 261 273
110 90 112 113 104 93 105 143 149 303 128 212 176 238 252 243 285 304 303 298 294 286 297 300 292 285 288 293 297 292 282 286 305 303 292 291 291 290 288 292 294 293 293 293 299 298 307 305 303 307 314 296 290 287 278 281 277 279 282 292 304 312 303 296 287 291 296 296 293 289 281 273 267 269
115 111 90 75 122 152 156 160 173 185 190 159 235 245 253 260 266 278 285 278 271 274 276 270 273 281 286 288 291 286 286 292 294 290 288 282 281 282 287 290 291 294 291 298 303 301 306 308 309 310 292 274 273 275 283 284 287 296 295 297 290 293 292 295 296 301 305 304 297 302 293 283 279 285